Погода Сенно

Погода Сенно : погода сейчас, прогноз погоды и архив. Всё, что Вы хотите узнать о погоде Сенно!

Хотите узнать прогноз погоды Сенно? Тогда Вам сюда: Погода Сенно

Поиск расширенной информации на нашем сайте:

Другие новости

Новости СМИ2

Главная страница сайта

Новости сайта

03.07.2017

Напоминаем, что на нашем специализированном сайте Метеоцентр.Азия вы можете получить высокодетализированные автоматические прогнозы погоды по пунктам России, СНГ и мира в авиационном формате (включающие направление и скорость ветра, видимость, явления погоды, количество и форму облачности, нижнюю и верхнюю границу облачности).

Рекомендуем: Все подробности Значение тату лев здесь.

Погода Сенно - сегодня

Время (UTC), дата Ветер
(°,м/с) 
Видим.   Явления Облачность Т
(°С)
Тd
(°С)
f(%) Тe
(°С)
Pmin
(гПа)
dP
(гПа)
Po
(мм)
O2
(г/м3)
Тmin Tmax R s Состояние
почвы
06 08.02.18 120 (ЮВ) 7000 м  дымка{снег, морось} [диам. гололёда 1 мм]  10/10 180 м 
[St]
-4.8 -6.1 91 -6  1024.1    751  309  -6.2    0.0  равномерный
сухой снег
100% 
18 08.02.18 120 (ЮВ) 20000 м  {снег}  ясно 
-2.2 -5.8 76 -4  1021.1    749  305    -1.4  11   
06 09.02.18 050 (СВ) 1000 м  снег  10/10 120 м 
[Frnb|Ns]
-5.3 -7.1 87 -7  1020.2    748  308  -5.4    0.2  10  равномерный
сухой снег
100% 
18 09.02.18 050 (СВ) 15000 м  {снег}  10/10 210 м 
[St]
-4.1 -6.4 84 -5  1019.5    748  307    -3.9  0.8  11   
06 10.02.18 050 (СВ) 7000 м  дымка{снег, морось} [диам. гололёда 1 мм]  10/10 180 м 
[St]
-5.3 -6.3 93 -5  1018.1    747  308  -5.3    12  равномерный
сухой снег
100% 
18 10.02.18 090 (В) 10 км    10/10 330 м 
[St]
-3 -4.7 88 -3  1017.1    746  305    -2.3    11   
06 11.02.18 тихо ()   2300 м  слаб. снег  10/10 120 м 
[Frnb|Ns]
-3.9 -5.1 91 -4  1014.3    744  305  -3.9    13  равномерный
сухой снег
100% 
18 11.02.18 150 (ЮВ) 10 км  {снег}  9/9 750 м 
[Sc]
-2.2 -3.8 89 -2  1013.6    744  302    -1.4  15   
06 12.02.18 тихо ()   6000 м  дымка{снег}  9/9 540 м 
[Sc]
-2.3 -3.6 91 -2  1015.8    745  303  -2.3    0.0  14  равномерный
сухой снег
100% 
18 12.02.18 130 (ЮВ) 10 км  {снег}  10/10 330 м 
[Frnb]
-1.8 -3.9 86 -3  1017.1    746  303    +1.5  0.0  14   
06 13.02.18 140 (ЮВ) 15000 м    9/0 средняя 
[Ac As]
-6.5 -9.7 78 -6  1020.4    748  310  -6.7      12  равномерный
сухой снег
100% 
18 13.02.18 тихо ()   10 км    6/0 верхняя 
[Ci fib]
-8.1 -12.2 72 -8  1022.7    750  313    -3.8    11   
06 14.02.18 110 (В) 8000 м  дымка  6/0 верхняя 
[Ci fib]
-13.2 -15.2 85 -13  1024.8    751  319  -13.3      11  равномерный
сухой снег
100% 
18 14.02.18 150 (ЮВ) 10 км    ясно 
-10.3 -12.3 85 -10  1028.3    754  317    -5.8    11   
06 15.02.18 130 (ЮВ) 5000 м  дымка  10/10 300 м 
[St]
-8.7 -10.6 86 -8  1030.2    755  315  -13      11  равномерный
сухой снег
100% 
18 15.02.18 130 (ЮВ) 7000 м  дымка{снег}  10/10 270 м 
[St]
-6.8 -9.2 83 -6  1030.5    756  313    -4.6  0.0  11   
06 16.02.18 140 (ЮВ) 1300 м  дымка  10/10 120 м 
[St]
-4.8 -5.8 93 -4  1027.6    754  310  -6.8      11  равномерный
сухой снег
100% 
18 16.02.18 150 (ЮВ) 1500 м  снег  10/10 120 м 
[Frnb|Ns]
-2.2 -3.4 91 -4  1023.7    751  305    -1.8  13   
06 17.02.18 180 (Ю) 4000 м  слаб. снег  10/10 180 м 
[Frnb|Ns]
-2.2 -3.1 94 -2  1020.7    749  305  -2.5    16  равномерный
сухой снег
100% 
18 17.02.18 130 (ЮВ) 3000 м  снег  10/10 210 м 
[Frnb|Ns]
-1.2 -2.1 94 -1  1017    746  302    +0.6  18   
06 18.02.18 320 (СЗ) 8000 м  дымка{снег}  10/10 180 м 
[St]
-2 -2.9 94 -3  1017.1    746  303  -2    0.7  18  равномерный
сухой снег
100% 
18 18.02.18 310 (СЗ) 9000 м  слаб. снег  10/10 210 м 
[Frnb|Ns]
-2.8 -4.4 89 -2  1020.4    749  305    -1  0.5  18   
06 19.02.18 290 (З) 2300 м  снег  10/10 180 м 
[Frnb|Ns]
-6.1 -7.6 89 -6  1021.6    749  310  -6.1    0.7  20  равномерный
сухой снег
100% 
18 19.02.18 320 (СЗ) 10 км  {снег}  10/10 480 м 
[Frnb]
-6.5 -8.9 83 -6  1023.6    751  311    -4.6  0.0  19   
06 20.02.18 270 (З) 6000 м  слаб. снег  10/0 средняя 
[As op]
-8.7 -10.2 89 -8  1024.7    751  314  -9.8    0.2  19  равномерный
сухой снег
100% 
Время (UTC), дата Ветер
(°,м/с) 
Видим.   Явления Облачность Т
(°С)
Тd
(°С)
f(%) Тe
(°С)
Pmin
(гПа)
dP
(гПа)
Po
(мм)
O2
(г/м3)
Тmin Tmax R s Состояние
почвы

Для получения пояснительной информации подведите курсор к названию столбца.

ПОГОДА Сенно - архив

Всё, что Вы хотите узнать о погоде Сенно - удобно и подробно!

Выберите нужную дату (начиная с 1 января 2015* года) и нажмите кнопку "Найти".
Будут отображены архивные сводки погоды по пункту Сенно, начиная с указанной даты.


Отображать данные в формате CSV (для использования в таблицах Excel)


Внимание! Наш архив погоды предназначен исключительно для личного некоммерческого использования в познавательных целях. Если Вам необходимы официальные справки о состоянии погоды (для производственных, юридических, коммерческих и т.п. целей), обращайтесь в органы Росгидромета.

*Примечание: данная дата относится к архиву по метеостанциям СССР (Россия, СНГ, Балтия).
Архив по метеостанциям Зарубежной Европы и Азии (кроме Китая) хранится 10 дней, по другим регионам земного шара (Китай, Африка, Америка, Австралия, Океания) - 1 день.

Сенно - район местоположения метеостанции


Название, широта, долгота, высота метеостанции:
Сенно 54.8°ш. 29.7°д. 176 м над ур. моря [Беларусь]

Дополнительная информация

В oтличие oт бoльшинства пoгoдных сайтoв мы публикуем пoдрoбную метеoинфoрмацию в детальнoм прoфессиoнальнoм фoрмате.

Характеристики температуры и влажнoсти вoздуха измеряются на высoте 2 м в тени вдали oт зданий и деревьев.
Скoрoсть ветра измеряется на высoте 10 м (на урoвне рoста челoвека скoрoсть ветра ниже в 1.5-2 раза). Если метеoстанция нахoдится в гoрoде или в лесу, тo скoрoсть ветра занижена на 2-4 м/с пo сравнению с oткрытым местoм. Скoрoсть ветра над акватoриями крупных рек и oзёр, а также на вершинах хoлмoв на 2-5 м/с выше, чем в oбычных услoвиях.
Атмoсфернoе давление в разных тoчках местнoсти мoжет значительнo oтличаться oт давления на метеoстанции, в зависимoсти oт услoвий рельефа (при пoдъёме на 10 м давление пoнижается примернo на 1 мм рт.ст.).